User: anonymous   Login
Location: Plum
(40.5000°N, 79.7500°W)
Time: 17:23:01
(UTC-04:00)
Language:

MOZ.5/SAFIR/RUBIN 5/SL-8 - Orbit

View from above orbital plane
View from above orbital plane
View from above satellite
View from above satellite

Ground track
Ground track

The orbit data is extracted from the following two-line orbital elements,

1 28898U 05043G   17141.94266786 +.00000063 +00000-0 +22276-4 0  9991
2 28898 097.9228 292.8340 0018396 270.3695 089.5398 14.60177727239379
Epoch (UTC): 21 May 2017 22:37:26
Eccentricity: 0.0018396
inclination: 97.9228°
perigee height: 679 km
apogee height: 705 km
right ascension of ascending node: 292.8340°
argument of perigee: 270.3695°
revolutions per day: 14.60177727
mean anomaly at epoch: 89.5398°
orbit number at epoch: 23937

The dashed part of the orbit path shows where the satellite is in the earth's shadow,  

DLR